Time,TemperatureF,DewpointF,PressureIn,WindDirection,WindDirectionDegrees,WindSpeedMPH,WindSpeedGustMPH,Humidity,HourlyPrecipIn,Conditions,Clouds,dailyrainin,SoftwareType,DateUTC
2013-06-06 00:03:00,68.0,54.0,30.10,North,0,0.0,-999.0,59,-99.99,,,-99.99,,2013-06-06 04:03:00,
2013-06-06 00:13:00,68.0,54.0,30.10,North,0,0.0,-999.0,59,-99.99,,,-99.99,,2013-06-06 04:13:00,
2013-06-06 00:23:00,68.0,54.0,30.10,North,0,0.0,-999.0,59,-99.99,,,-99.99,,2013-06-06 04:23:00,
2013-06-06 00:33:00,66.0,52.0,30.10,North,0,0.0,-999.0,59,-99.99,,,-99.99,,2013-06-06 04:33:00,
2013-06-06 00:42:00,66.0,52.0,30.10,North,0,0.0,-999.0,59,-99.99,,,-99.99,,2013-06-06 04:42:00,
2013-06-06 00:53:00,66.0,52.0,30.09,North,0,0.0,-999.0,59,-99.99,,,-99.99,,2013-06-06 04:53:00,
2013-06-06 01:02:00,66.0,52.0,30.09,North,0,0.0,-999.0,59,-99.99,,,-99.99,,2013-06-06 05:02:00,
2013-06-06 01:12:00,66.0,52.0,30.09,North,0,0.0,-999.0,59,-99.99,,,-99.99,,2013-06-06 05:12:00,
2013-06-06 01:23:00,66.0,52.0,30.09,North,0,0.0,-999.0,59,-99.99,,,-99.99,,2013-06-06 05:23:00,
2013-06-06 01:32:00,64.0,52.0,30.09,North,0,0.0,-999.0,63,-99.99,,,-99.99,,2013-06-06 05:32:00,
2013-06-06 01:42:00,64.0,52.0,30.09,North,0,0.0,-999.0,63,-99.99,,,-99.99,,2013-06-06 05:42:00,
2013-06-06 01:52:00,66.0,54.0,30.08,North,0,0.0,-999.0,63,-99.99,,,-99.99,,2013-06-06 05:52:00,
2013-06-06 02:02:00,66.0,54.0,30.08,North,0,0.0,-999.0,63,-99.99,,,-99.99,,2013-06-06 06:02:00,
2013-06-06 02:12:00,64.0,52.0,30.09,North,0,0.0,-999.0,63,-99.99,,,-99.99,,2013-06-06 06:12:00,
2013-06-06 02:22:00,64.0,52.0,30.09,North,0,0.0,-999.0,63,-99.99,,,-99.99,,2013-06-06 06:22:00,
2013-06-06 02:33:00,64.0,54.0,30.08,North,0,0.0,-999.0,67,-99.99,,,-99.99,,2013-06-06 06:33:00,
2013-06-06 02:42:00,64.0,54.0,30.08,North,0,0.0,-999.0,67,-99.99,,,-99.99,,2013-06-06 06:42:00,
2013-06-06 02:52:00,64.0,54.0,30.08,North,0,0.0,-999.0,67,-99.99,,,-99.99,,2013-06-06 06:52:00,
2013-06-06 03:02:00,64.0,54.0,30.08,North,0,0.0,-999.0,67,-99.99,,,-99.99,,2013-06-06 07:02:00,
2013-06-06 03:12:00,64.0,54.0,30.08,North,0,0.0,-999.0,67,-99.99,,,-99.99,,2013-06-06 07:12:00,
2013-06-06 03:22:00,64.0,54.0,30.08,North,0,0.0,-999.0,67,-99.99,,,-99.99,,2013-06-06 07:22:00,
2013-06-06 03:32:00,64.0,54.0,30.07,North,0,0.0,-999.0,67,-99.99,,,-99.99,,2013-06-06 07:32:00,
2013-06-06 03:42:00,64.0,54.0,30.07,North,0,0.0,-999.0,67,-99.99,,,-99.99,,2013-06-06 07:42:00,
2013-06-06 03:52:00,64.0,54.0,30.06,North,0,0.0,-999.0,67,-99.99,,,-99.99,,2013-06-06 07:52:00,
2013-06-06 04:02:00,64.0,54.0,30.06,North,0,0.0,-999.0,67,-99.99,,,-99.99,,2013-06-06 08:02:00,
2013-06-06 04:12:00,64.0,54.0,30.06,North,0,0.0,-999.0,67,-99.99,,,-99.99,,2013-06-06 08:12:00,
2013-06-06 04:22:00,64.0,54.0,30.06,North,0,0.0,-999.0,67,-99.99,,,-99.99,,2013-06-06 08:22:00,
2013-06-06 04:32:00,63.0,54.0,30.06,North,0,0.0,-999.0,72,-99.99,,,-99.99,,2013-06-06 08:32:00,
2013-06-06 04:42:00,63.0,54.0,30.06,North,0,0.0,-999.0,72,-99.99,,,-99.99,,2013-06-06 08:42:00,
2013-06-06 04:52:00,63.0,54.0,30.05,North,0,0.0,-999.0,72,-99.99,,,-99.99,,2013-06-06 08:52:00,
2013-06-06 05:02:00,63.0,54.0,30.05,North,0,0.0,-999.0,72,-99.99,,,-99.99,,2013-06-06 09:02:00,
2013-06-06 05:12:00,63.0,54.0,30.05,North,0,0.0,-999.0,72,-99.99,,,-99.99,,2013-06-06 09:12:00,
2013-06-06 05:22:00,63.0,54.0,30.05,North,0,0.0,-999.0,72,-99.99,,,-99.99,,2013-06-06 09:22:00,
2013-06-06 05:33:00,61.0,54.0,30.06,North,0,0.0,-999.0,77,-99.99,,,-99.99,,2013-06-06 09:33:00,
2013-06-06 05:43:00,61.0,54.0,30.06,North,0,0.0,-999.0,77,-99.99,,,-99.99,,2013-06-06 09:43:00,
2013-06-06 05:53:00,61.0,55.0,30.06,North,0,0.0,-999.0,82,-99.99,,,-99.99,,2013-06-06 09:53:00,
2013-06-06 06:03:00,61.0,55.0,30.06,North,0,0.0,-999.0,82,-99.99,,,-99.99,,2013-06-06 10:03:00,
2013-06-06 06:12:00,61.0,55.0,30.06,North,0,0.0,-999.0,82,-99.99,,,-99.99,,2013-06-06 10:12:00,
2013-06-06 06:23:00,61.0,55.0,30.06,North,0,0.0,-999.0,82,-99.99,,,-99.99,,2013-06-06 10:23:00,
2013-06-06 06:33:00,63.0,55.0,30.06,North,0,0.0,-999.0,77,-99.99,,,-99.99,,2013-06-06 10:33:00,
2013-06-06 06:42:00,63.0,55.0,30.06,North,0,0.0,-999.0,77,-99.99,,,-99.99,,2013-06-06 10:42:00,
2013-06-06 06:53:00,63.0,55.0,30.06,North,0,0.0,-999.0,77,-99.99,,,-99.99,,2013-06-06 10:53:00,
2013-06-06 07:02:00,63.0,55.0,30.06,North,0,0.0,-999.0,77,-99.99,,,-99.99,,2013-06-06 11:02:00,
2013-06-06 07:12:00,63.0,55.0,30.06,North,0,0.0,-999.0,77,-99.99,,,-99.99,,2013-06-06 11:12:00,
2013-06-06 07:23:00,63.0,55.0,30.06,North,0,0.0,-999.0,77,-99.99,,,-99.99,,2013-06-06 11:23:00,
2013-06-06 07:32:00,66.0,57.0,30.06,SSE,160,5.0,-999.0,72,-99.99,,,-99.99,,2013-06-06 11:32:00,
2013-06-06 07:42:00,66.0,57.0,30.06,SSE,160,5.0,-999.0,72,-99.99,,,-99.99,,2013-06-06 11:42:00,
2013-06-06 07:52:00,66.0,55.0,30.05,SSE,150,7.0,-999.0,68,-99.99,,,-99.99,,2013-06-06 11:52:00,
2013-06-06 08:03:00,66.0,55.0,30.05,SSE,150,7.0,-999.0,68,-99.99,,,-99.99,,2013-06-06 12:03:00,
2013-06-06 08:13:00,68.0,55.0,30.05,SSE,160,6.0,-999.0,64,-99.99,,,-99.99,,2013-06-06 12:13:00,
2013-06-06 08:23:00,68.0,55.0,30.05,SSE,160,6.0,-999.0,64,-99.99,,,-99.99,,2013-06-06 12:23:00,
2013-06-06 08:33:00,68.0,54.0,30.05,South,180,8.0,-999.0,59,-99.99,,,-99.99,,2013-06-06 12:33:00,
2013-06-06 08:43:00,68.0,54.0,30.05,South,180,8.0,-999.0,59,-99.99,,,-99.99,,2013-06-06 12:43:00,
2013-06-06 08:52:00,68.0,55.0,30.06,South,170,6.0,-999.0,64,-99.99,,,-99.99,,2013-06-06 12:52:00,
2013-06-06 09:03:00,68.0,55.0,30.06,South,170,6.0,-999.0,64,-99.99,,,-99.99,,2013-06-06 13:03:00,
2013-06-06 09:13:00,68.0,55.0,30.05,South,170,7.0,-999.0,64,-99.99,,,-99.99,,2013-06-06 13:13:00,
2013-06-06 09:23:00,68.0,55.0,30.05,South,170,7.0,-999.0,64,-99.99,,,-99.99,,2013-06-06 13:23:00,
2013-06-06 09:33:00,70.0,55.0,30.05,North,-99,7.0,-999.0,60,-99.99,,,-99.99,,2013-06-06 13:33:00,
2013-06-06 09:43:00,70.0,55.0,30.05,North,-99,7.0,-999.0,60,-99.99,,,-99.99,,2013-06-06 13:43:00,
2013-06-06 09:52:00,70.0,55.0,30.04,SE,140,7.0,-999.0,60,-99.99,,,-99.99,,2013-06-06 13:52:00,
2013-06-06 10:03:00,70.0,55.0,30.04,SE,140,7.0,-999.0,60,-99.99,,,-99.99,,2013-06-06 14:03:00,
2013-06-06 10:13:00,70.0,55.0,30.04,SE,140,7.0,-999.0,60,-99.99,,,-99.99,,2013-06-06 14:13:00,
2013-06-06 10:23:00,70.0,55.0,30.04,SE,140,7.0,-999.0,60,-99.99,,,-99.99,,2013-06-06 14:23:00,
2013-06-06 10:33:00,70.0,57.0,30.03,South,190,10.0,16.0,64,-99.99,,,-99.99,,2013-06-06 14:33:00,
2013-06-06 10:43:00,70.0,57.0,30.03,South,190,10.0,16.0,64,-99.99,,,-99.99,,2013-06-06 14:43:00,
2013-06-06 10:53:00,72.0,59.0,30.03,South,170,8.0,-999.0,64,-99.99,,,-99.99,,2013-06-06 14:53:00,
2013-06-06 11:03:00,72.0,59.0,30.03,South,170,8.0,-999.0,64,-99.99,,,-99.99,,2013-06-06 15:03:00,
2013-06-06 11:13:00,72.0,59.0,30.03,South,170,8.0,-999.0,64,-99.99,,,-99.99,,2013-06-06 15:13:00,
2013-06-06 11:23:00,72.0,59.0,30.03,South,170,8.0,-999.0,64,-99.99,,,-99.99,,2013-06-06 15:23:00,
2013-06-06 11:33:00,72.0,59.0,30.02,South,170,12.0,16.0,64,-99.99,,,-99.99,,2013-06-06 15:33:00,
2013-06-06 11:43:00,72.0,59.0,30.02,South,170,12.0,16.0,64,-99.99,,,-99.99,,2013-06-06 15:43:00,
2013-06-06 11:53:00,72.0,59.0,30.02,SE,140,9.0,-999.0,64,-99.99,,,-99.99,,2013-06-06 15:53:00,
2013-06-06 12:03:00,72.0,59.0,30.02,SE,140,9.0,-999.0,64,-99.99,,,-99.99,,2013-06-06 16:03:00,
2013-06-06 12:13:00,73.0,61.0,30.02,South,170,7.0,-999.0,64,-99.99,,,-99.99,,2013-06-06 16:13:00,
2013-06-06 12:23:00,73.0,61.0,30.02,South,170,7.0,-999.0,64,-99.99,,,-99.99,,2013-06-06 16:23:00,
2013-06-06 12:33:00,73.0,61.0,30.01,South,170,5.0,-999.0,64,-99.99,,,-99.99,,2013-06-06 16:33:00,
2013-06-06 12:44:00,73.0,61.0,30.01,South,170,5.0,-999.0,64,-99.99,,,-99.99,,2013-06-06 16:44:00,
2013-06-06 12:52:00,73.0,61.0,30.00,SSE,150,8.0,-999.0,64,-99.99,,,-99.99,,2013-06-06 16:52:00,
2013-06-06 13:03:00,73.0,61.0,30.00,SSE,150,8.0,-999.0,64,-99.99,,,-99.99,,2013-06-06 17:03:00,
2013-06-06 13:13:00,73.0,61.0,30.00,SE,140,9.0,-999.0,64,-99.99,,,-99.99,,2013-06-06 17:13:00,
2013-06-06 13:23:00,73.0,61.0,30.00,SE,140,9.0,-999.0,64,-99.99,,,-99.99,,2013-06-06 17:23:00,
2013-06-06 13:33:00,73.0,61.0,29.99,South,180,5.0,-999.0,64,-99.99,,,-99.99,,2013-06-06 17:33:00,
2013-06-06 13:43:00,73.0,61.0,29.99,South,180,5.0,-999.0,64,-99.99,,,-99.99,,2013-06-06 17:43:00,
2013-06-06 13:52:00,73.0,61.0,29.98,SSE,160,13.0,-999.0,64,-99.99,,,-99.99,,2013-06-06 17:52:00,
2013-06-06 14:03:00,73.0,61.0,29.98,SSE,160,13.0,-999.0,64,-99.99,,,-99.99,,2013-06-06 18:03:00,
2013-06-06 14:13:00,73.0,61.0,29.98,SSE,160,13.0,-999.0,64,-99.99,,,-99.99,,2013-06-06 18:13:00,
2013-06-06 14:23:00,73.0,61.0,29.98,SSE,160,13.0,-999.0,64,-99.99,,,-99.99,,2013-06-06 18:23:00,
2013-06-06 14:33:00,73.0,61.0,29.98,SSE,160,13.0,-999.0,64,-99.99,,,-99.99,,2013-06-06 18:33:00,
2013-06-06 15:03:00,73.0,63.0,29.97,South,180,5.0,-999.0,68,-99.99,,,-99.99,,2013-06-06 19:03:00,
2013-06-06 15:13:00,73.0,63.0,29.97,South,180,5.0,-999.0,68,-99.99,,,-99.99,,2013-06-06 19:13:00,
2013-06-06 15:23:00,73.0,63.0,29.97,South,180,5.0,-999.0,68,-99.99,,,-99.99,,2013-06-06 19:23:00,
2013-06-06 15:33:00,73.0,61.0,29.96,South,180,10.0,17.0,64,-99.99,,,-99.99,,2013-06-06 19:33:00,
2013-06-06 15:43:00,73.0,61.0,29.96,South,180,10.0,17.0,64,-99.99,,,-99.99,,2013-06-06 19:43:00,
2013-06-06 15:53:00,73.0,61.0,29.95,SSE,160,9.0,-999.0,64,-99.99,,,-99.99,,2013-06-06 19:53:00,
2013-06-06 16:03:00,73.0,61.0,29.95,SSE,160,9.0,-999.0,64,-99.99,,,-99.99,,2013-06-06 20:03:00,
2013-06-06 16:13:00,73.0,61.0,29.95,SSE,160,9.0,-999.0,64,-99.99,,,-99.99,,2013-06-06 20:13:00,
2013-06-06 16:23:00,73.0,61.0,29.95,SSE,160,9.0,-999.0,64,-99.99,,,-99.99,,2013-06-06 20:23:00,
2013-06-06 16:33:00,73.0,61.0,29.94,South,190,5.0,-999.0,64,-99.99,,,-99.99,,2013-06-06 20:33:00,
2013-06-06 16:43:00,73.0,61.0,29.94,South,190,5.0,-999.0,64,-99.99,,,-99.99,,2013-06-06 20:43:00,
2013-06-06 16:53:00,73.0,61.0,29.93,South,190,10.0,20.0,64,-99.99,,,-99.99,,2013-06-06 20:53:00,
2013-06-06 17:03:00,73.0,61.0,29.93,South,190,10.0,20.0,64,-99.99,,,-99.99,,2013-06-06 21:03:00,
2013-06-06 17:13:00,73.0,61.0,29.93,South,190,10.0,20.0,64,-99.99,,,-99.99,,2013-06-06 21:13:00,
2013-06-06 17:23:00,73.0,61.0,29.93,South,190,10.0,20.0,64,-99.99,,,-99.99,,2013-06-06 21:23:00,
2013-06-06 17:33:00,73.0,61.0,29.93,South,170,7.0,-999.0,64,-99.99,,,-99.99,,2013-06-06 21:33:00,
2013-06-06 17:44:00,73.0,61.0,29.93,South,170,7.0,-999.0,64,-99.99,,,-99.99,,2013-06-06 21:44:00,
2013-06-06 17:53:00,73.0,61.0,29.93,South,170,9.0,-999.0,64,-99.99,,,-99.99,,2013-06-06 21:53:00,
2013-06-06 18:03:00,73.0,61.0,29.93,South,170,9.0,-999.0,64,-99.99,,,-99.99,,2013-06-06 22:03:00,
2013-06-06 18:13:00,73.0,61.0,29.93,SSW,200,7.0,-999.0,64,-99.99,,,-99.99,,2013-06-06 22:13:00,
2013-06-06 18:23:00,73.0,61.0,29.93,SSW,200,7.0,-999.0,64,-99.99,,,-99.99,,2013-06-06 22:23:00,
2013-06-06 18:33:00,73.0,61.0,29.92,South,180,7.0,-999.0,64,-99.99,,,-99.99,,2013-06-06 22:33:00,
2013-06-06 18:43:00,73.0,61.0,29.92,South,180,7.0,-999.0,64,-99.99,,,-99.99,,2013-06-06 22:43:00,
2013-06-06 18:53:00,73.0,61.0,29.93,South,180,5.0,-999.0,64,-99.99,,,-99.99,,2013-06-06 22:53:00,
2013-06-06 19:03:00,73.0,61.0,29.93,South,180,5.0,-999.0,64,-99.99,,,-99.99,,2013-06-06 23:03:00,
2013-06-06 19:13:00,73.0,61.0,29.93,South,180,5.0,-999.0,64,-99.99,,,-99.99,,2013-06-06 23:13:00,
2013-06-06 19:22:00,73.0,61.0,29.93,South,180,5.0,-999.0,64,-99.99,,,-99.99,,2013-06-06 23:22:00,
2013-06-06 19:33:00,72.0,59.0,29.94,South,190,5.0,-999.0,64,-99.99,,,-99.99,,2013-06-06 23:33:00,
2013-06-06 19:43:00,72.0,59.0,29.94,South,190,5.0,-999.0,64,-99.99,,,-99.99,,2013-06-06 23:43:00,
2013-06-06 19:52:00,72.0,61.0,29.95,North,0,0.0,-999.0,68,-99.99,,,-99.99,,2013-06-06 23:52:00,
2013-06-06 20:02:00,72.0,61.0,29.95,North,0,0.0,-999.0,68,-99.99,,,-99.99,,2013-06-07 00:02:00,
2013-06-06 20:13:00,72.0,61.0,29.95,North,0,0.0,-999.0,68,-99.99,,,-99.99,,2013-06-07 00:13:00,
2013-06-06 20:22:00,72.0,61.0,29.95,North,0,0.0,-999.0,68,-99.99,,,-99.99,,2013-06-07 00:22:00,
2013-06-06 20:32:00,66.0,61.0,29.93,SSE,150,5.0,-999.0,82,-99.99,,,-99.99,,2013-06-07 00:32:00,
2013-06-06 20:43:00,66.0,61.0,29.93,SSE,150,5.0,-999.0,82,-99.99,,,-99.99,,2013-06-07 00:43:00,
2013-06-06 20:52:00,66.0,63.0,29.92,SSE,160,5.0,-999.0,88,-99.99,,,-99.99,,2013-06-07 00:52:00,
2013-06-06 21:03:00,66.0,63.0,29.92,SSE,160,5.0,-999.0,88,-99.99,,,-99.99,,2013-06-07 01:03:00,
2013-06-06 21:12:00,66.0,63.0,29.91,SSE,150,7.0,-999.0,88,-99.99,,,-99.99,,2013-06-07 01:12:00,
2013-06-06 21:22:00,66.0,63.0,29.91,SSE,150,7.0,-999.0,88,-99.99,,,-99.99,,2013-06-07 01:22:00,
2013-06-06 21:32:00,66.0,63.0,29.91,SE,130,6.0,-999.0,88,-99.99,,,-99.99,,2013-06-07 01:32:00,
2013-06-06 21:42:00,66.0,63.0,29.91,SE,130,6.0,-999.0,88,-99.99,,,-99.99,,2013-06-07 01:42:00,
2013-06-06 21:52:00,66.0,63.0,29.90,SE,130,7.0,-999.0,88,-99.99,,,-99.99,,2013-06-07 01:52:00,
2013-06-06 22:02:00,66.0,63.0,29.90,SE,130,7.0,-999.0,88,-99.99,,,-99.99,,2013-06-07 02:02:00,
2013-06-06 22:12:00,66.0,63.0,29.90,SE,130,7.0,-999.0,88,-99.99,,,-99.99,,2013-06-07 02:12:00,
2013-06-06 22:22:00,66.0,63.0,29.90,SE,130,7.0,-999.0,88,-99.99,,,-99.99,,2013-06-07 02:22:00,
2013-06-06 22:32:00,68.0,64.0,29.90,SE,130,5.0,-999.0,88,-99.99,,,-99.99,,2013-06-07 02:32:00,
2013-06-06 22:42:00,68.0,64.0,29.90,SE,130,5.0,-999.0,88,-99.99,,,-99.99,,2013-06-07 02:42:00,
2013-06-06 22:52:00,68.0,64.0,29.90,North,0,0.0,-999.0,88,-99.99,,,-99.99,,2013-06-07 02:52:00,
2013-06-06 23:02:00,68.0,64.0,29.90,North,0,0.0,-999.0,88,-99.99,,,-99.99,,2013-06-07 03:02:00,
2013-06-06 23:12:00,68.0,64.0,29.89,North,0,0.0,-999.0,88,-99.99,,,-99.99,,2013-06-07 03:12:00,
2013-06-06 23:22:00,68.0,64.0,29.89,North,0,0.0,-999.0,88,-99.99,,,-99.99,,2013-06-07 03:22:00,
2013-06-06 23:33:00,70.0,64.0,29.89,SE,140,7.0,-999.0,82,-99.99,,,-99.99,,2013-06-07 03:33:00,
2013-06-06 23:43:00,70.0,64.0,29.89,SE,140,7.0,-999.0,82,-99.99,,,-99.99,,2013-06-07 03:43:00,
2013-06-06 23:53:00,70.0,64.0,29.88,SE,130,12.0,16.0,82,-99.99,,,-99.99,,2013-06-07 03:53:00,